Weather History for KHRO - October, 2012

Change the Weather History Date:

Sunday, October 7, 2012

  Actual Average Record
Temperature  
Mean Temperature 44 °F 61 °F  
Max Temperature 55 °F 73 °F 95 °F (1963)
Min Temperature 33 °F 50 °F 28 °F (1952)
Degree Days  
Heating Degree Days 21 5  
Month to date heating degree days 58 31  
Since 1 July heating degree days 81 74  
Cooling Degree Days 0 1  
Month to date cooling degree days 3 13  
Year to date cooling degree days 1925 1392  
Moisture  
Dew Point 33 °F    
Average Humidity 64    
Maximum Humidity 89    
Minimum Humidity 38    
Precipitation  
Precipitation 0.00 in 0.11 in 2.94 in (1925)
Month to date precipitation 0.41 0.83  
Year to date precipitation 23.73 33.99  
Snow  
Snow 0.00 in 0.00 in - ()
Month to date snowfall 0.0 0.0  
Since 1 July snowfall 0.0 0.0  
Since 1 September snowfall 0.0 0.0  
Snow Depth 0.00 in    
Sea Level Pressure  
Sea Level Pressure 30.26 in    
Wind  
Wind Speed 3 mph (NW)    
Max Wind Speed 10 mph    
Max Gust Speed 16 mph    
Visibility 10 miles    
Events      
T = Trace of Precipitation, MM = Missing Value Source: NWS Daily Summary

Daily Weather History Graph

Daily Weather History Graph

Search for Another Location

Airport or City:

Trip Planner

Search our weather history database for the weather conditions in past years. The results will help you decide how hot, cold, wet, or windy it might be!

Date:

Astronomy

Oct. 07, 2012 Rise Set
Actual Time 7:13 AM CDT 6:46 PM CDT
Civil Twilight 6:47 AM CDT 7:12 PM CDT
Nautical Twilight 6:17 AM CDT 7:42 PM CDT
Astronomical Twilight 5:47 AM CDT 8:12 PM CDT
Moon No Moon Rise 1:43 PM CDT (10/7)
Length of Visible Light 12h 25m
Length of Day
11h 33m
Waning Gibbous, 56% of the Moon is Illuminated
Oct 7
Waning Gibbous
Oct 8
Last Quarter
Oct 15
New
Oct 21
First Quarter
Oct 29
Full

Hourly Weather History & Observations

Time (CDT) Temp. Windchill Dew Point Humidity Pressure Visibility Wind Dir Wind Speed Gust Speed Precip Events Conditions
12:53 AM 39.9 °F 36.7 °F 36.0 °F 86% 30.27 in 10.0 mi NW 4.6 mph - N/A   Overcast
1:53 AM 39.9 °F 35.1 °F 35.1 °F 83% 30.29 in 10.0 mi NW 6.9 mph - N/A   Overcast
2:53 AM 39.9 °F 37.8 °F 33.1 °F 77% 30.28 in 10.0 mi NNW 3.5 mph - N/A   Overcast
3:53 AM 39.9 °F 35.8 °F 33.1 °F 77% 30.30 in 10.0 mi NW 5.8 mph - N/A   Overcast
4:53 AM 39.9 °F 36.7 °F 32.0 °F 73% 30.29 in 10.0 mi NNW 4.6 mph - N/A   Overcast
5:53 AM 37.0 °F 34.5 °F 30.9 °F 79% 30.30 in 10.0 mi NW 3.5 mph - N/A   Clear
6:53 AM 36.0 °F 33.3 °F 30.0 °F 79% 30.30 in 10.0 mi West 3.5 mph - N/A   Clear
7:53 AM 35.1 °F - 32.0 °F 89% 30.30 in 10.0 mi Calm Calm - N/A   Clear
8:53 AM 41.0 °F 39.0 °F 30.9 °F 67% 30.31 in 10.0 mi NNW 3.5 mph - N/A   Clear
9:53 AM 45.0 °F 41.8 °F 30.9 °F 58% 30.31 in 10.0 mi North 5.8 mph - N/A   Clear
10:53 AM 46.9 °F - 30.0 °F 52% 30.31 in 10.0 mi NNW 5.8 mph - N/A   Clear
11:53 AM 51.1 °F - 32.0 °F 48% 30.30 in 10.0 mi Variable 4.6 mph - N/A   Clear
12:53 PM 52.0 °F - 30.0 °F 43% 30.28 in 10.0 mi Variable 5.8 mph - N/A   Clear
1:53 PM 55.0 °F - 30.0 °F 38% 30.25 in 10.0 mi Variable 5.8 mph - N/A   Clear
2:53 PM 53.1 °F - 28.9 °F 40% 30.22 in 10.0 mi North 4.6 mph - N/A   Clear
3:53 PM 53.1 °F - 30.9 °F 43% 30.21 in 10.0 mi Variable 3.5 mph - N/A   Clear
4:53 PM 51.1 °F - 32.0 °F 48% 30.20 in 10.0 mi NW 3.5 mph - N/A   Clear
5:53 PM 50.0 °F - 32.0 °F 50% 30.20 in 10.0 mi NW 3.5 mph - N/A   Clear
6:53 PM 48.0 °F - 35.1 °F 61% 30.21 in 10.0 mi Calm Calm - N/A   Clear
7:53 PM 46.9 °F - 37.0 °F 68% 30.20 in 10.0 mi Calm Calm - N/A   Mostly Cloudy
8:53 PM 46.0 °F - 39.9 °F 79% 30.21 in 10.0 mi Calm Calm - N/A   Mostly Cloudy
9:53 PM 46.0 °F - 37.9 °F 73% 30.22 in 10.0 mi Calm Calm - N/A   Mostly Cloudy
10:53 PM 45.0 °F 40.6 °F 37.0 °F 74% 30.23 in 10.0 mi South 8.1 mph - N/A   Overcast
11:53 PM 45.0 °F - 37.9 °F 76% 30.21 in 10.0 mi Calm Calm - N/A   Mostly Cloudy